Regional Weather Roundup
Issued by NWS

Home | Current Version | Previous Version | Text Only | Print | Product List | Glossary Off
Versions: 1 2 3 4 5 6 7 8 9 10 11 12 13 14 15 16 17 18 19 20 21 22 23 24 25 26 27 28 29 30 31 32 33 34 35 36 37 38 39 40 41 42 43 44 45 46 47 48 49 50

000
ASUS43 KIND 251359
RWRIN

WEATHER ROUNDUP FOR INDIANA
NATIONAL WEATHER SERVICE INDIANAPOLIS IN
900 AM EST SAT FEB 25 2017

NOTE: "FAIR" INDICATES FEW OR NO CLOUDS BELOW 12,000 FEET WITH NO
SIGNIFICANT WEATHER AND/OR OBSTRUCTIONS TO VISIBILITY.

* - STATION DOES NOT REPORT WEATHER SUCH AS PRECIPITATION OR FOG.

+ - STATION NOT QUALITY CONTROLLED BY THE NATIONAL WEATHER SERVICE.
    USE DATA WITH CAUTION...ESPECIALLY DEWPOINT AND RELATIVE
    HUMIDITY OBSERVATIONS.

INZ001>003-010>013-019-020-251500-
NORTHWEST INDIANA

CITY           SKY/WX    TMP DP  RH WIND       PRES   REMARKS
GARY /AIRPORT/ CLOUDY    27  14  59 W17G32    29.77R WCI  14
KNOX *+        CLOUDY    28  12  50 W17G28    29.73R VSB 3/4 WCI  16
MICHIGAN CITY+ CLOUDY    27  18  69 W14G26    29.74R WCI  15
RENSSELAER +   FLURRIES  27  21  80 W22G29    29.79R WCI  12
VALPARAISO     CLOUDY    27  17  66 NW15      29.75R WCI  15

$$

LMZ046-743>745-251500-
SOUTHERN LAKE MICHIGAN

STATION/POSITION TIME  TEMP    WIND        PRES    WAVE
                       AIR SEA DIR/SP/G            HT
                 (UTC) (F)     (DEG/KT/KT) (MB)    (FT)
BURNS HARBOR     1340   27     270/ 22/ 26 1007.8R
MICHIGAN CITY    1330   26     270/ 29/ 33   N/A

$$

INZ004-005-014>016-021>024-251500-
NORTH CENTRAL INDIANA

CITY           SKY/WX    TMP DP  RH WIND       PRES   REMARKS
ELKHART        LGT SNOW  28  21  74 W18       29.69  WCI  16
GOSHEN         LGT SNOW  30  23  75 W17G28    29.67R VSB 1   WCI  18
SOUTH BEND     FLURRIES  26  19  74 NW18G32   29.70R WCI  13

$$

INZ006>009-017-018-025>027-251500-
NORTHEAST INDIANA

CITY           SKY/WX    TMP DP  RH WIND       PRES   REMARKS
ANGOLA *+      CLOUDY    30  27  86 W12       29.62R WCI  21
FORT WAYNE     CLOUDY    32  26  78 W22G28    29.68R HAZE    WCI  19
KENDALLVILLE + CLOUDY    31  23  71 W22G29    29.64R WCI  18

$$

INZ028-029-035-036-043>045-051>053-251500-
WEST CENTRAL INDIANA

CITY           SKY/WX    TMP DP  RH WIND       PRES   REMARKS
LAFAYETTE      CLOUDY    26  21  81 W29G38    29.81R WCI  10
TERRE HAUTE    FLURRIES  28  16  60 W22G33    29.90R WCI  14

$$

INZ030>032-037>040-046>048-054>057-064-065-251500-
CENTRAL INDIANA

CITY           SKY/WX    TMP DP  RH WIND       PRES   REMARKS
ANDERSON       LGT SNOW  30  28  93 W17G29    29.76  VSB 1   WCI  18
COLUMBUS       LGT SNOW  32  27  80 W24G30    29.83R FOG     WCI  19
GREENWOOD *+   CLOUDY    30  25  80 W20G35    29.82R WCI  18
INDIANAPOLIS   CLOUDY    29  21  72 W25G35    29.82R WCI  14
-EAGLE CREEK   CLOUDY    29  20  69 W18G39    29.81R WCI  16
KOKOMO +       FLURRIES  29  25  85 W25G32    29.75R WCI  14
MT COMFORT *+  CLOUDY    28  25  86 W28G35    29.80R WCI  13
SHELBYVILLE    LGT SNOW  31  25  78 W22G31    29.80R WCI  18

$$

INZ033-034-041-042-049-050-058-059-251500-
EAST CENTRAL INDIANA

CITY           SKY/WX    TMP DP  RH WIND       PRES   REMARKS
MUNCIE         LGT SNOW  32  28  85 W21       29.73R FOG     WCI  20

$$

INZ060-061-067>069-081>083-085>088-251500-
SOUTHWEST INDIANA

CITY           SKY/WX    TMP DP  RH WIND       PRES   REMARKS
EVANSVILLE     CLOUDY    32  19  58 W14G25    29.98R WCI  22
HUNTINGBURG *+ MIX PCPN  31  21  66 W24       29.94R WCI  17

$$

INZ062-063-066-070>080-084-089>092-251500-
SOUTH CENTRAL AND SOUTHEAST INDIANA

CITY           SKY/WX    TMP DP  RH WIND       PRES   REMARKS
BLOOMINGTON    FLURRIES  29  20  69 W15G23    29.86R WCI  18
MADISON *+     CLOUDY    34  23  64 W15G26    29.85R WCI  24
SEYMOUR +      FLURRIES  34  25  69 W23G32    29.86R WCI  22

$$





USA.gov is the U.S. government's official web portal to all federal, state and local government web resources and services.